Regional Weather Roundup
Issued by NWS

Home | Current Version | Previous Version | Graphics & Text | Print | Product List | Glossary On
Versions: 1 2 3 4 5 6 7 8 9 10 11 12 13 14 15 16 17 18 19 20 21 22 23 24 25 26 27 28 29 30 31 32 33 34 35 36 37 38 39 40 41 42 43 44 45 46 47 48 49 50
000
ASUS45 KBOU 210007
RWRCO

WEATHER ROUNDUP FOR COLORADO
NATIONAL WEATHER SERVICE DENVER/BOULDER CO
500 PM MST SAT DEC 20 2014

NOTE: "FAIR" INDICATES FEW OR NO CLOUDS BELOW 12000 FEET WITH NO
SIGNIFICANT WEATHER AND/OR OBSTRUCTIONS TO VISIBILITY.

COZ001>005-013-030-031-210100-
...NORTHWEST COLORADO...

CITY           SKY/WX    TMP DP  RH WIND       PRES   REMARKS
CRAIG          LGT SNOW  30  26  85 E5        30.06R FOG     WCI  25
HAYDEN         CLOUDY    28  21  74 N5        30.05R WCI  23
MEEKER         LGT SNOW  31  28  89 W5        30.07R FOG     WCI  26
MOUNT WERNER   NOT AVBL
STEAMBOAT SPGS CLOUDY    26  24  91 CALM      30.05S
WALDEN         MOCLDY    25  19  80 CALM      30.00S
$$

COZ006>008-011-210100-
...WEST CENTRAL VALLEYS...

CITY           SKY/WX    TMP DP  RH WIND       PRES   REMARKS
GRAND JUNCTION CLOUDY    36  27  69 NW7       30.12S
MONTROSE       CLOUDY    35  23  61 N5        30.11S WCI  31
EAGLE          CLOUDY    30  21  69 CALM      30.09F
RIFLE          CLOUDY    35  23  61 CALM      30.10S
DELTA          CLOUDY    39  26  59 W6        30.10S
NUCLA          CLOUDY    37  27  65 CALM      30.13F
$$

COZ017>023-064>068-210100-
...SOUTHWEST COLORADO...

CITY           SKY/WX    TMP DP  RH WIND       PRES   REMARKS
DURANGO        CLOUDY    34  26  72 CALM      30.09R
CORTEZ         CLEAR     36  28  73 CALM      30.11R
PAGOSA SPRINGS CLOUDY    35  23  61 SW5       30.09S WCI  31
TELLURIDE      CLOUDY    30  21  68 CALM      30.10S
WOLF CREEK PAS PTCLDY    18  16  93 MISG      30.09S
$$

COZ009-010-012-014-032>034-037-058>063-210100-
...CENTRAL COLORADO...

CITY           SKY/WX    TMP DP  RH WIND       PRES   REMARKS
ASPEN          CLOUDY    28  20  71 NW3       30.06S
BUENA VISTA    MOCLDY    35  14  41 W14G22    30.01R WCI  26
COPPER MTN     LGT SNOW  19  14  79 W21G26    30.03F WCI   3
BERTHOUD PASS  CLOUDY    12   7  79 MISG      29.99F
COTTONWOOD PAS MOCLDY    32  14  47 N7        30.02S WCI  26
GUNNISON       MOCLDY    25  12  58 N3        30.12S
KREMMLING      CLOUDY    27  19  74 CALM      30.06F
LEADVILLE      CLOUDY    23  14  68 NW10      30.03S WCI  12
MONARCH PASS   CLOUDY    18  14  86 W35G40    30.13S WCI  -3
SALIDA         MOCLDY    38  19  47 SW17G24   30.08R
SUNLIGHT       LGT SNOW  23  21  93 CALM      30.06F
WILKERSON PASS CLOUDY    23  12  63 NW12G18   30.05S WCI  12
$$

COZ069>075-210100-
...SAN LUIS VALLEY/SANGRE DE CRISTO MOUNTAINS...

CITY           SKY/WX    TMP DP  RH WIND       PRES   REMARKS
ALAMOSA        PTCLDY    27  16  63 E5        30.04S WCI  22
LA VETA PASS   PTCLDY    25  14  63 S10G20    30.02F WCI  15
SAGUACHE       PTCLDY    32  14  47 S7        30.05S WCI  26
$$

COZ035-036-038>040-210100-
...NORTHERN COLORADO FRONT RANGE...

CITY           SKY/WX    TMP DP  RH WIND       PRES   REMARKS
DENVER INTL AP MOCLDY    34  22  61 SE8       29.93F WCI  27
DMNS CITY PARK   N/A     41  18  38 E2        29.93S
AURORA         MOCLDY    36  22  55 SE8       29.94S
FRONT RANGE AP NOT AVBL
ERIE MUNI ARPT   N/A     38  21  49 NW3       29.94R
BOULDER MUN AP MOCLDY    41  21  45 W6        29.95R
CENTENNIAL     MOCLDY    37  21  52 S5        29.94R
BROOMFIELD     MOCLDY    41  19  42 E6        29.94S
FORT COLLINS   MOCLDY    39  16  38 CALM      29.96R
LONGMONT       MOCLDY    39  21  47 NW7       29.96R
$$

COZ041-046-047-076>085-087-088-210100-
...PIKES PEAK/PALMER DIVIDE AND SOUTHERN FOOTHILLS...

CITY           SKY/WX    TMP DP  RH WIND       PRES   REMARKS
COLO. SPRINGS  MOCLDY    41  16  36 SE8       29.95S
A. F. ACADEMY  PTCLDY    42  15  33 NW7       29.94S
ELLICOTT       NOT AVBL
FALCON         CLOUDY    39  16  38 CALM      29.97R
FORT CARSON    MOCLDY    43  19  38 S6        29.93S
LIMON          MOCLDY    36  16  44 CALM      29.94S
MONUMENT HILL  MOCLDY    32  21  64 E3        29.95S
TRINIDAD       PTCLDY    42  14  32 S7        29.94S
$$

COZ042>045-048>051-090-091-210100-
...NORTHEAST COLORADO...

CITY           SKY/WX    TMP DP  RH WIND       PRES   REMARKS
GREELEY ARPT   PTCLDY    36  12  38 S3        29.93S
AKRON          MOCLDY    38  24  57 E6        29.94F
BURLINGTON     PTCLDY    40  30  67 SE3       29.96S
WRAY           MOCLDY    37  31  78 SW5       29.96S
STERLING       MOCLDY    32  28  86 CALM      29.94S
HOLYOKE        PTCLDY    37  32  81 SW3       29.95S
FORT MORGAN    MOCLDY    33  23  66 CALM      29.94F
$$

COZ086-089-092>099-210100-
...SOUTHEAST COLORADO...

CITY           SKY/WX    TMP DP  RH WIND       PRES   REMARKS
PUEBLO         CLOUDY    45  19  35 E8        29.91S
LA JUNTA       CLEAR     36  27  69 E7        29.94S
LAMAR          PTCLDY    36  23  59 E6        29.95S
SPRINGFIELD      N/A     36  24  62 S9        29.96R
$$



USA.gov is the U.S. government's official web portal to all federal, state and local government web resources and services.